BRITE-PL2 (HEWELIUSZ)

Last updated on Wed Nov 05 2025 00:03:34 GMT+0000 (Coordinated Universal Time)

1 40119U 14049B 25308.54539985 .00002204 00000+0 21528-3 0 9997 2 40119 97.8992 54.2294 0015307 131.7331 228.5200 14.93368281607908
UTC large
Height (km)
Speed (km/s)
/
Latitude / Longitude
Inclination (degrees)
Orbital Period (minutes)
Azimuth
Elevation
Range (km)
Doppler Factor

Next 0 passes for location: London (51.5072 / 0.1276)

Sorry there are no passes over London.